CZ-2C R/B, 58916

Orbit data source: Space-Track

CZ-2C R/B, 58916 is space debris in LEO originally from a launch on Fri, 02 Feb 2024 UTC launched from the Xichang Space Center, China (XSC). Debris objects in space refer to the collection of defunct objects orbiting the Earth. Examples of debris include non-operational satellites, rocket bodies, and fragments generated from explosions, collisions, or faulty payload assembly.

Loading next visibility...
Identifier
58916, 2024-023M
Orbit
LEO
Country
Flag of CNCN / PRC
Related business
Manufacturer
CALT
Mission
Spacecraft
Bus & Motor
CZ-2 STAGE 2, Unknown motor
Mass
~3,800 kg wet, ~3,800 kg dry
Launch date (UTC)
2024-02-02 (2 years ago)
Launch vehicle
Unknown
Launch site
Xichang Space Center, China (XSC)
Object type
Payload
Rocket body
Debris
Shape & HBR
Cyl, 3.7 m
Radar Cross Section
23.715 m², Large (>1 m²)

Expand to show TLE details & history
Last TLE update: 2 days ago

TLE from 2 days ago
0 CZ-2C R/B
1 58916U 24023M   26171.11933158  .00000187  00000-0  61744-4 0  9990
2 58916  49.8987  88.3898 0094768 281.8626  77.1691 14.71432561127732
Epoch: 2026-06-20T02:51Z
TLE epoch observation values (Epoch: 2026-06-20T02:51:50.248Z)
Latitude
Longitude
137.0919°
Altitude
642.827 km
Speed
7.545 km/s
True Right ascension
05h 53m 33s
True Declination
0° 00' 00"
Sunlit
Object was in daylight at epoch
Visualization orbit readout
Latitude
Unknown
Longitude
Unknown
Altitude
Unknown
Speed
Unknown
Apparent Right ascension
Unknown
Apparent Declination
Unknown
Sunlit
N/A
Visualization observer readout
Local Sidereal Time
21:49:03
Azimuth
Unknown
Elevation
Unknown
Doppler factor
Unknown
Orbital elements
Apogee altitude
723.942 km
Perigee altitude
590.596 km
Semi-major axis
7,035.406 km
Eccentricity
0.00948
Inclination
49.8987°
RAAN
88.3898°
Arg. of periapsis
281.8626°
True anomaly
78.23068°
Mean anomaly
77.1691°
Eccentric anomaly
77.69962°
Mean motion
3.67798 °/min
Orbital period
97.88 mins
BSTAR
0.000061744
Loading maneuver chart data...
Computing Atmospheric mass density...
Loading historical data...
Loading historical data...
Loading historical data...
Loading historical data...
Loading historical data...
Loading historical data...
Loading historical data...

Documentation

Showing up to 5 results
|